When you browse on this site, cookies collect data to enhance your experience and personalize the content and advertising you see.
Visit our Privacy Policy to learn more. By continuing to use the site, you agree to this use of cookies and data.

Hourly Weather Krzywica

Today, 7 July, Tuesday

Time Temperature Precipitation Wind Pressure Humidity
00:00 +17°C° 0 mm 4 mps 749 mmHg 65%
01:00 +15°C° 0 mm 4 mps 750 mmHg 69%
02:00 +14°C° 0 mm 4 mps 750 mmHg 71%
03:00 +14°C° 0 mm 3 mps 750 mmHg 73%
04:00 +14°C° 0 mm 3 mps 750 mmHg 74%
05:00 +14°C° 0 mm 4 mps 750 mmHg 74%
06:00 +14°C° 0 mm 5 mps 751 mmHg 74%
07:00 +14°C° 0 mm 5 mps 751 mmHg 73%
08:00 +15°C° 0 mm 5 mps 751 mmHg 70%
09:00 +16°C° 0 mm 5 mps 751 mmHg 67%
10:00 +17°C° 0 mm 5 mps 751 mmHg 64%
11:00 +17°C° 0.1 mm 5 mps 751 mmHg 61%
12:00 +19°C° 0.1 mm 5 mps 752 mmHg 59%
13:00 +19°C° 0.1 mm 6 mps 752 mmHg 56%
14:00 +19°C° 0.1 mm 6 mps 752 mmHg 56%
15:00 +19°C° 0.1 mm 5 mps 752 mmHg 56%
16:00 +19°C° 0.1 mm 5 mps 752 mmHg 56%
17:00 +18°C° 0 mm 4 mps 752 mmHg 60%
18:00 +17°C° 0 mm 4 mps 752 mmHg 65%
19:00 +16°C° 0 mm 3 mps 752 mmHg 69%
20:00 +14°C° 0 mm 3 mps 752 mmHg 71%
21:00 +14°C° 0 mm 2 mps 752 mmHg 73%
22:00 +13°C° 0 mm 2 mps 753 mmHg 75%
23:00 +13°C° 0 mm 2 mps 752 mmHg 77%

Tomorrow, 8 July, Wednesday

Time Temperature Precipitation Wind Pressure Humidity
00:00 +12°C° 0 mm 2 mps 752 mmHg 78%
01:00 +12°C° 0 mm 2 mps 752 mmHg 79%
02:00 +12°C° 0 mm 2 mps 752 mmHg 79%
03:00 +12°C° 0 mm 2 mps 752 mmHg 79%
04:00 +11°C° 0 mm 3 mps 752 mmHg 79%
05:00 +12°C° 0 mm 3 mps 752 mmHg 75%
06:00 +14°C° 0 mm 4 mps 751 mmHg 71%
07:00 +15°C° 0 mm 5 mps 751 mmHg 68%
08:00 +15°C° 0.1 mm 5 mps 751 mmHg 71%
09:00 +14°C° 0.1 mm 5 mps 751 mmHg 75%
10:00 +14°C° 0.1 mm 4 mps 752 mmHg 78%
11:00 +15°C° 0.1 mm 5 mps 751 mmHg 73%
12:00 +16°C° 0.1 mm 5 mps 751 mmHg 67%
13:00 +17°C° 0.1 mm 6 mps 751 mmHg 62%
14:00 +17°C° 0.1 mm 6 mps 751 mmHg 63%
15:00 +17°C° 0.1 mm 5 mps 751 mmHg 64%
16:00 +17°C° 0.1 mm 5 mps 751 mmHg 65%
17:00 +16°C° 0.1 mm 5 mps 751 mmHg 69%
18:00 +15°C° 0.1 mm 5 mps 751 mmHg 74%
19:00 +15°C° 0.1 mm 4 mps 752 mmHg 78%
20:00 +14°C° 0 mm 4 mps 752 mmHg 81%
21:00 +13°C° 0 mm 4 mps 752 mmHg 84%
22:00 +13°C° 0 mm 3 mps 752 mmHg 87%
23:00 +12°C° 0 mm 3 mps 753 mmHg 89%

Day after tomorrow, 9 July, Thursday

Time Temperature Precipitation Wind Pressure Humidity
00:00 +12°C° 0 mm 3 mps 753 mmHg 91%
01:00 +11°C° 0 mm 3 mps 753 mmHg 93%
02:00 +11°C° 0 mm 3 mps 754 mmHg 93%
03:00 +12°C° 0 mm 2 mps 754 mmHg 94%
04:00 +12°C° 0 mm 2 mps 754 mmHg 95%
05:00 +13°C° 0 mm 2 mps 754 mmHg 90%
06:00 +14°C° 0 mm 2 mps 754 mmHg 86%
07:00 +14°C° 0 mm 3 mps 755 mmHg 81%
08:00 +17°C° 0 mm 3 mps 755 mmHg 74%
09:00 +18°C° 0 mm 2 mps 755 mmHg 66%
10:00 +19°C° 0 mm 2 mps 755 mmHg 59%
11:00 +20°C° 0.1 mm 3 mps 755 mmHg 58%
12:00 +20°C° 0.1 mm 3 mps 754 mmHg 57%
13:00 +21°C° 0.1 mm 3 mps 754 mmHg 56%
14:00 +21°C° 0.1 mm 3 mps 754 mmHg 56%
15:00 +21°C° 0.1 mm 2 mps 754 mmHg 55%
16:00 +21°C° 0.1 mm 2 mps 753 mmHg 55%
17:00 +20°C° 0.1 mm 2 mps 753 mmHg 61%
18:00 +19°C° 0.1 mm 2 mps 753 mmHg 67%
19:00 +18°C° 0.1 mm 2 mps 753 mmHg 74%
20:00 +18°C° 0 mm 2 mps 753 mmHg 76%
21:00 +17°C° 0 mm 2 mps 754 mmHg 79%
22:00 +16°C° 0 mm 2 mps 754 mmHg 82%
23:00 +16°C° 0 mm 2 mps 753 mmHg 83%

10 July, Friday

Time Temperature Precipitation Wind Pressure Humidity
00:00 +16°C° 0 mm 3 mps 753 mmHg 85%
01:00 +16°C° 0 mm 3 mps 753 mmHg 86%
02:00 +16°C° 0 mm 3 mps 753 mmHg 87%
03:00 +16°C° 0 mm 3 mps 752 mmHg 88%
04:00 +16°C° 0 mm 3 mps 752 mmHg 89%
05:00 +17°C° 0.1 mm 3 mps 752 mmHg 88%
06:00 +17°C° 0.1 mm 4 mps 752 mmHg 87%
07:00 +18°C° 0.1 mm 4 mps 752 mmHg 86%
08:00 +20°C° 0 mm 5 mps 751 mmHg 79%
09:00 +22°C° 0 mm 5 mps 751 mmHg 73%
10:00 +24°C° 0 mm 6 mps 751 mmHg 67%
11:00 +26°C° 0.1 mm 6 mps 750 mmHg 63%
12:00 +27°C° 0.1 mm 6 mps 750 mmHg 60%
13:00 +28°C° 0.1 mm 6 mps 749 mmHg 57%
14:00 +28°C° 0.2 mm 5 mps 749 mmHg 57%
15:00 +29°C° 0.2 mm 5 mps 748 mmHg 58%
16:00 +29°C° 0.2 mm 5 mps 747 mmHg 58%
17:00 +28°C° 0.3 mm 5 mps 747 mmHg 62%
18:00 +27°C° 0.3 mm 5 mps 747 mmHg 65%
19:00 +25°C° 0.3 mm 5 mps 747 mmHg 68%
20:00 +23°C° 2.3 mm 4 mps 747 mmHg 75%
21:00 +21°C° 2.3 mm 4 mps 748 mmHg 83%
22:00 +19°C° 2.3 mm 4 mps 749 mmHg 91%
23:00 +18°C° 0.2 mm 4 mps 749 mmHg 89%

11 July, Saturday

Time Temperature Precipitation Wind Pressure Humidity
00:00 +16°C° 0.2 mm 5 mps 750 mmHg 87%
01:00 +15°C° 0.2 mm 5 mps 751 mmHg 85%
02:00 +14°C° 0.2 mm 5 mps 751 mmHg 84%
03:00 +13°C° 0.2 mm 4 mps 752 mmHg 83%
04:00 +12°C° 0.2 mm 4 mps 752 mmHg 81%
05:00 +13°C° 0 mm 4 mps 753 mmHg 79%
06:00 +13°C° 0 mm 5 mps 753 mmHg 76%
07:00 +14°C° 0 mm 5 mps 754 mmHg 73%
08:00 +15°C° 0 mm 5 mps 754 mmHg 68%
09:00 +16°C° 0 mm 5 mps 754 mmHg 63%
10:00 +17°C° 0 mm 6 mps 755 mmHg 58%
11:00 +17°C° 0 mm 5 mps 755 mmHg 58%
12:00 +19°C° 0 mm 5 mps 755 mmHg 58%
13:00 +19°C° 0 mm 5 mps 755 mmHg 57%
14:00 +19°C° 0 mm 5 mps 755 mmHg 57%
15:00 +19°C° 0 mm 5 mps 755 mmHg 57%
16:00 +19°C° 0 mm 4 mps 755 mmHg 57%
17:00 +18°C° 0.1 mm 4 mps 755 mmHg 62%
18:00 +17°C° 0.1 mm 3 mps 755 mmHg 67%
19:00 +16°C° 0.1 mm 3 mps 755 mmHg 72%
20:00 +15°C° 0 mm 2 mps 755 mmHg 73%
21:00 +15°C° 0 mm 2 mps 755 mmHg 74%
22:00 +14°C° 0 mm 2 mps 756 mmHg 75%
23:00 +13°C° 0 mm 2 mps 756 mmHg 77%

12 July, Sunday

Time Temperature Precipitation Wind Pressure Humidity
00:00 +13°C° 0 mm 2 mps 756 mmHg 79%
01:00 +11°C° 0 mm 3 mps 756 mmHg 81%
02:00 +12°C° 0 mm 2 mps 756 mmHg 83%
03:00 +10°C° 0 mm 2 mps 756 mmHg 85%
04:00 +10°C° 0 mm 2 mps 756 mmHg 88%
05:00 +11°C° 0 mm 3 mps 756 mmHg 82%
06:00 +13°C° 0 mm 3 mps 756 mmHg 76%
07:00 +14°C° 0 mm 3 mps 757 mmHg 71%
08:00 +15°C° 0.1 mm 4 mps 757 mmHg 67%
09:00 +17°C° 0.1 mm 4 mps 757 mmHg 63%
10:00 +17°C° 0.1 mm 5 mps 757 mmHg 59%
11:00 +19°C° 0.1 mm 5 mps 757 mmHg 57%
12:00 +19°C° 0.1 mm 5 mps 757 mmHg 55%
13:00 +19°C° 0.1 mm 6 mps 757 mmHg 53%
14:00 +19°C° 0.1 mm 6 mps 757 mmHg 54%
15:00 +19°C° 0.1 mm 6 mps 757 mmHg 54%
16:00 +19°C° 0.1 mm 6 mps 757 mmHg 54%
17:00 +17°C° 0 mm 5 mps 757 mmHg 60%
18:00 +17°C° 0 mm 4 mps 757 mmHg 67%
19:00 +14°C° 0 mm 3 mps 757 mmHg 73%
20:00 +13°C° 0 mm 3 mps 757 mmHg 76%
21:00 +12°C° 0 mm 3 mps 758 mmHg 79%
22:00 +12°C° 0 mm 2 mps 758 mmHg 83%
23:00 +12°C° 0 mm 2 mps 758 mmHg 85%
Show more